Погода в Порт-Элизабет

ЮАР     33°55′00″S   25°34′14″E
темп.,
°C
ветер,
м/с
пор.,
м/с
влажн.,
%
обл.,
%
осадки,
мм/ч
давл.,
гПа
погр.,
м
17 августа, ср
ср1723:00+13зюз3473100 0.0 1012113
02:00+12з357192 0.0 1011132
05:00+12з34758 0.0 1010111
08:00+13сз226810 0.0 101085
11:00+18зюз12428 0.0 1009459
14:00+19ююз35450 0.0 1007540
17:00+16юз35615 0.0 1007278
20:00+14зсз236912 0.0 100965
18 августа, чт
чт1823:00+14зсз366938 0.0 1010269
02:00+13з488015 0.4 1011341
05:00+13з7128334 0.3 1011834
08:00+14з913767 0.4 1013983
11:00+16з812611 0.0 10141310
14:00+17зюз911610 0.0 10131334
17:00+15зюз91273100 0.1 1013990
20:00+14зюз61090100 1.8 1015642
19 августа, пт
пт1923:00+14ю468381 2.0 1017546
02:00+14ююз578073 2.8 1017569
05:00+13юз587782 0.3 1017613
08:00+14з610788 0.8 1019862
11:00+15з10137396 0.6 10201365
14:00+16зюз1114580 0.6 10181281
17:00+14зюз11166489 0.0 10171196
20:00+14з1016692 0.0 10171027
20 августа, сб
сб2023:00+14зюз101870100 0.2 10161720
02:00+12з142777100 5.3 10172384
05:00+12зюз15257427 1.1 10172128
08:00+12зюз14217099 2.6 10212124
11:00+14зюз13185924 0.8 10232089
14:00+14зюз12165992 1.4 10242110
17:00+12з10146896 0.6 10251556
20:00+12з8137298 0.8 10271140
21 августа, вс
вс2123:00+11зсз6117129 0.1 1027835
02:00+10зсз5106717 0.1 1026538
05:00+11з59652 0.0 1026453
08:00+11сз34645 0.0 1026203
11:00+17зсз14435 0.0 1024576
14:00+18зюз36440 0.0 1021706
17:00+16юз57610 0.0 1022317
20:00+14зюз710730 0.0 1023545